Regional Weather Roundup
Issued by NWS

Current Version | Previous Version | Text Only | Print | Product List | Glossary On
Versions: 1 2 3 4 5 6 7 8 9 10 11 12 13 14 15 16 17 18 19 20 21 22 23 24 25 26 27 28 29 30 31 32 33 34 35 36 37 38 39 40 41 42 43 44 45 46 47 48 49 50
000
ASUS43 KMPX 032310
RWRMN
WEATHER ROUNDUP FOR MINNESOTA
NATIONAL WEATHER SERVICE TWIN CITIES/CHANHASSEN MN
600 PM CDT WED JUN 03 2020


NOTE: "FAIR" INDICATES FEW OR NO CLOUDS BELOW 12,000 FEET WITH NO
SIGNIFICANT WEATHER AND/OR OBSTRUCTIONS TO VISIBILITY. N/A MEANS
CURRENT SKY AND/OR WEATHER CONDITIONS ARE NOT AVAILABLE.

MNZ060>063-068>070-040000-
   Twin Cities Metro

CITY           SKY/WX    TMP DP  RH WIND       PRES   REMARKS
TWIN CITIES    MOSUNNY   82  48  30 NW7       29.80F
ST PAUL        SUNNY     82  48  30 NW12      29.79F
CRYSTAL        SUNNY     81  46  29 NW9       29.79F
BLAINE         MOSUNNY   81  46  30 NW12      29.80F
LAKEVILLE      SUNNY     82  54  36 NW5       29.80F
EDEN PRAIRIE   SUNNY     83  48  29 N9        29.79F
SOUTH ST PAUL  SUNNY     82  44  26 W8        29.79F
LAKE ELMO      FAIR      81  52  36 N8        29.81F
$$
MNZ001>005-007-008-013>017-022>024-027-028-040000-
   Northwest Minnesota

CITY           SKY/WX    TMP DP  RH WIND       PRES   REMARKS
BEMIDJI        SUNNY     75  41  29 E5        29.82F
HALLOCK        MOSUNNY   82  39  21 S16       29.69F
ROSEAU         SUNNY     77  48  36 S7        29.76F
WARROAD        SUNNY     75  46  35 SW6       29.77F
THIEF RVR FALL SUNNY     78  43  28 S10G18    29.77F
CROOKSTON      SUNNY     82  43  24 SW9G20    29.73F
FOSSTON        SUNNY     75  36  23 S10       29.80F
DETROIT LAKES  SUNNY     79  41  25 SW3       29.83S
MOORHEAD       SUNNY     82  30  15 S8        29.77F
PARK RAPIDS    SUNNY     78  40  25 SW8       29.83F
MAHNOMEN       FAIR      78  40  25 SW9       29.79F
$$
MNZ006-009>011-018-025>026-040000-
   North Central Minnesota

CITY           SKY/WX    TMP DP  RH WIND       PRES   REMARKS
BAUDETTE       SUNNY     76  42  29 NE5       29.79F
FLAG ISLAND      N/A     68  46  45 SE8       29.77F
INTL FALLS     SUNNY     74  42  31 W6        29.80F
BIG FORK       SUNNY     75  37  25 NW3       29.87S
LONGVILLE      SUNNY     73  39  29 N5        29.84F
GRAND RAPIDS     N/A     74  43  32 W7        29.85S
CRANE LAKE     SUNNY     70  39  32 CALM      29.83F
ORR            SUNNY     73  36  25 CALM      29.79F
COOK           SUNNY     73  43  33 NW3       29.81F
WALKER         FAIR      73  41  30 E6        29.83F
$$
MNZ012-019>021-037-040000-
   Northeast Minnesota

CITY           SKY/WX    TMP DP  RH WIND       PRES   REMARKS
DULUTH         MOSUNNY   74  41  30 N10       29.81S
ELY            SUNNY     72  36  26 NW6G16    29.81S
HIBBING        SUNNY     73  40  30 NW9       29.81F
EVELETH        SUNNY     73  43  33 NW5       29.83S
DULUTH HARBOR  SUNNY     73  41  31 CALM      29.78F
TWO HARBORS    SUNNY     75  37  25 W6        29.78S
SILVER BAY     SUNNY     73  37  27 NW5       29.77S
GRAND MARAIS     N/A     54  42  64 SW15      29.76S
G MARAIS ARPRT SUNNY     70  36  28 W6        29.80S
$$
MNZ029>031-032-039>041-046>048-054>057-064-040000-
   West Central Minnesota

CITY           SKY/WX    TMP DP  RH WIND       PRES   REMARKS
FERGUS FALLS   SUNNY     81  45  28 CALM      29.77S
WHEATON        SUNNY     84  41  21 W6        29.80F
MORRIS         SUNNY     82  32  16 W6        29.81F
ALEXANDRIA     SUNNY     77  46  33 NE5       29.84F
ELBOW LAKE     FAIR      80  45  29 NW6       29.82S
WADENA         SUNNY     77  45  31 W3        29.83S
GLENWOOD       SUNNY     77  48  36 CALM      29.83F
APPLETON       SUNNY     82  39  21 CALM      29.80F
BENSON         SUNNY     79  52  38 S3        29.81F
ORTONVILLE     SUNNY     82  43  24 CALM      29.80F
MADISON        SUNNY     82  43  24 E6        29.81F
WILLMAR          N/A     81  46  30 NE3       29.84F
$$
MNZ033>034-036-042>043-049>051-058-059-040000-
   Central Minnesota

CITY           SKY/WX    TMP DP  RH WIND       PRES   REMARKS
ST CLOUD       SUNNY     80  42  25 NW9       29.81F
SAUK CENTRE    FAIR      78  43  29 CALM      29.82F
PAYNESVILLE    SUNNY     79  46  31 NW5       29.83F
AITKIN         SUNNY     73  39  29 NW5       29.82F
PINE RIVER     SUNNY     72  45  37 N7        29.87F
BRAINERD       SUNNY     77  46  33 NE5       29.83F
LONG PRAIRIE   FAIR      77  43  29 CALM      29.83F
LITTLE FALLS   SUNNY     77  43  29 N7        29.83F
CAMP RIPLEY    MOCLDY    77  42  28 N8        29.83F
LITCHFIELD     SUNNY     79  48  34 NW7       29.83S
BUFFALO        SUNNY     79  44  28 MISG      29.83S
HUTCHINSON     SUNNY     80  51  35 NW8       29.83S
$$
MNZ037-044-045-052-053-040000-
   East Central Minnesota

CITY           SKY/WX    TMP DP  RH WIND       PRES   REMARKS
PRINCETON      SUNNY     81  45  28 NW7       29.81F
MORA           SUNNY     73  41  31 N7        29.84S
CAMBRIDGE      SUNNY     81  54  39 NW9       29.81F
RUSH CITY      SUNNY     75  41  29 NW6       29.81F
MOOSE LAKE     SUNNY     73  45  35 NW3       29.80F
HINCKLEY       FAIR      73  45  35 W7        29.81F
CLOQUET        SUNNY     73  36  25 NW9       29.81F
MCGREGOR       SUNNY     75  37  25 NW7       29.83F
$$
MNZ071>073-080-081-089-090-097-098-040000-
   Southwest Minnesota

CITY           SKY/WX    TMP DP  RH WIND       PRES   REMARKS
MONTEVIDEO     SUNNY     81  39  22 NE6       29.81F
GRANITE FALLS  MOSUNNY   83  47  28 NE6       29.82F
CANBY          PTSUNNY   89  41  19 NW6       29.82F
MARSHALL       SUNNY     84  45  25 N5        29.82F
REDWOOD FALLS  SUNNY     81  44  27 NW3       29.79F
OLIVIA         SUNNY     81  39  22 NW6         N/A
PIPESTONE        N/A     82  46  28 CALM      29.84F
WINDOM         SUNNY     81  39  22 NW12      29.83S
WORTHINGTON    PTSUNNY   82  46  28 NW5       29.85F
JACKSON        PTSUNNY   82  39  21 NW7       29.84F
TRACY          PTSUNNY   83  44  25 N5        29.82F
SLAYTON        PTSUNNY   80  47  31 NW3       29.86F
$$
MNZ065>067-074>077-082>085-091>093-040000-
   South Central Minnesota

CITY           SKY/WX    TMP DP  RH WIND       PRES   REMARKS
MANKATO        SUNNY     83  48  29 VRB3      29.81F
NEW ULM        SUNNY     82  41  23 NW10      29.80F
ST JAMES         N/A     82  45  26 W8        29.80F
FAIRMONT       SUNNY     84  44  24 NW12      29.82F
GLENCOE        SUNNY     78  28  16 NE3       29.80F
FARIBAULT      SUNNY     82  48  30 NW9       29.81F
OWATONNA       SUNNY     82  52  34 NW10      29.80F
WASECA         SUNNY    N/A N/A N/A NW10      29.82S
ALBERT LEA     SUNNY     82  48  30 NW6       29.81F
$$
MNZ078>079-086>088-094>096-040000-
   Southeast Minnesota

CITY           SKY/WX    TMP DP  RH WIND       PRES   REMARKS
ROCHESTER      SUNNY     82  53  36 W14       29.79F
RED WING       SUNNY     82  48  30 NW5       29.77F
STANTON        SUNNY     82  48  31 NW10      29.79S
DODGE CENTER   SUNNY     82  48  30 NW7       29.79F
WINONA         MOSUNNY   82  61  47 N9        29.76F
AUSTIN         SUNNY     82  55  39 W7        29.81F
PRESTON        SUNNY     81  56  41 W9        29.81F
$$
ABBREVIATIONS USED IN REMARKS
   TC - TEMPERATURES IN CELSIUS
  WCI - WIND CHILL INDEX
   HX - HEAT INDEX
  VSB - VISIBILITY
$$




USA.gov is the U.S. government's official web portal to all federal, state and local government web resources and services.